Regional Weather Roundup
Issued by NWS

Home | Current Version | Previous Version | Text Only | Print | Product List | Glossary On
Versions: 1 2 3 4 5 6 7 8 9 10 11 12 13 14 15 16 17 18 19 20 21 22 23 24 25 26 27 28 29 30 31 32 33 34 35 36 37 38 39 40 41 42 43 44 45 46 47 48 49 50
000
ASUS43 KMPX 050110
RWRMN
WEATHER ROUNDUP FOR MINNESOTA
NATIONAL WEATHER SERVICE TWIN CITIES/CHANHASSEN MN
800 PM CDT FRI SEP 04 2015


NOTE: "FAIR" INDICATES FEW OR NO CLOUDS BELOW 12,000 FEET WITH NO
SIGNIFICANT WEATHER AND/OR OBSTRUCTIONS TO VISIBILITY. N/A MEANS
CURRENT SKY AND/OR WEATHER CONDITIONS ARE NOT AVAILABLE.

MNZ060>063-068>070-050200-
   Twin Cities Metro

CITY           SKY/WX    TMP DP  RH WIND       PRES   REMARKS
TWIN CITIES    MOCLDY    84  72  67 SE8       29.91R
ST PAUL        MOCLDY    82  73  74 SE9       29.91S
CRYSTAL        PTCLDY    86  72  62 SE9       29.89S HX  92
BLAINE         MOCLDY    84  73  70 SE8       29.91R HX  91
LAKEVILLE      PTCLDY    79  73  83 S3        29.92S
EDEN PRAIRIE   PTCLDY    83  73  72 S7        29.90R
SOUTH ST PAUL  MOCLDY    83  71  68 SE5       29.92R
LAKE ELMO      FAIR      81  73  78 SE6       29.93S
$$
MNZ001>005-007-008-013>017-022>024-027-028-050200-
   Northwest Minnesota

CITY           SKY/WX    TMP DP  RH WIND       PRES   REMARKS
BEMIDJI        TSTM      74  72  92 SE8       29.89R
HALLOCK        MOCLDY    70  70 100 CALM      29.83R
ROSEAU         CLOUDY    72  66  83 CALM      29.83S
WARROAD        LGT RAIN  70  64  83 CALM      29.83F
THIEF RVR FALL MOCLDY    73  72  94 S7        29.84S
CROOKSTON      MOCLDY    75  70  83 S9        29.83S
FOSSTON        CLOUDY    73  72  94 S5        29.86F
DETROIT LAKES  CLOUDY    77  72  83 CALM      29.88S
MOORHEAD       CLOUDY    75  73  94 CALM      29.83S
PARK RAPIDS    TSTM      74  69  85 S17       29.89S VSB 3/4
MAHNOMEN       CLOUDY    75  73  92 CALM      29.85F
$$
MNZ006-009>011-018-025>026-050200-
   North Central Minnesota

CITY           SKY/WX    TMP DP  RH WIND       PRES   REMARKS
BAUDETTE       LGT RAIN  75  71  87 CALM      29.85F
FLAG ISLAND    TSTM      72  68  88 S8G22     29.84R
INTL FALLS     CLOUDY    78  69  73 SE13G18   29.87F
WASKISH        CLOUDY    75  72  88 CALM      29.87S
BIG FORK       TSTM      75  70  83 NW3       29.93R
LONGVILLE      MOCLDY    75  72  88 SE7       29.89F
GRAND RAPIDS     N/A     75  68  78 SE9       29.93R
CRANE LAKE     PTCLDY    72  66  83 SE3       29.92F
ORR            MOCLDY    73  64  73 S5        29.92R
COOK           PTCLDY    73  66  78 SE7       29.94R
WALKER         CLOUDY    74  71  91 CALM      29.88F
$$
MNZ012-019>021-037-050200-
   Northeast Minnesota

CITY           SKY/WX    TMP DP  RH WIND       PRES   REMARKS
DULUTH         PTCLDY    67  61  81 E13       29.97S
ELY            PTCLDY    72  61  68 SE13      29.96F
HIBBING        MOCLDY    74  66  76 SE8       29.95R
EVELETH        PTCLDY    72  64  78 SE3       29.97R
DULUTH HARBOR  CLEAR     61  57  88 E6        29.97S
TWO HARBORS    PTCLDY    70  63  78 NE8       29.96S
SILVER BAY     CLEAR     68  57  68 NE7       29.98S
GRAND MARAIS     N/A     70  55  59 NE8       30.00S
G MARAIS ARPRT CLEAR     64  52  63 E9        30.06S
$$
MNZ029>031-032-039>041-046>048-054>057-064-050200-
   West Central Minnesota

CITY           SKY/WX    TMP DP  RH WIND       PRES   REMARKS
FERGUS FALLS   MOCLDY    79  72  78 S8        29.83S
WHEATON        PTCLDY    73  68  83 SE8       29.84R
MORRIS         MOCLDY    77  70  78 SE9       29.84F
ALEXANDRIA     CLOUDY    77  70  79 S10       29.90R
ELBOW LAKE     FAIR      76  71  85 S8        29.85S
WADENA         CLOUDY    77  72  83 S3        29.87S
GLENWOOD       CLOUDY    75  72  88 S7        29.90R
APPLETON       MOCLDY    77  66  69 SE8       29.83F
BENSON         MOCLDY    77  66  69 S7        29.86F
ORTONVILLE     CLEAR     77  66  69 SE7       29.84R
MADISON        PTCLDY    73  70  88 SE7       29.84R
WILLMAR        LGT RAIN  77  72  83 SE3       29.90R
$$
MNZ033>034-036-042>043-049>051-058-059-050200-
   Central Minnesota

CITY           SKY/WX    TMP DP  RH WIND       PRES   REMARKS
ST CLOUD       MOCLDY    82  74  76 S10       29.89R
SAUK CENTRE    FAIR      77  74  89 SE3       29.89S
PAYNESVILLE    CLOUDY    80  71  73 SE6       29.89S
AITKIN         PTCLDY    79  72  78 SE6       29.90S
PINE RIVER     MOCLDY    77  72  83 SE6       29.92F
BRAINERD       MOCLDY    78  72  81 CALM      29.89F
STAPLES        CLOUDY    79  72  78 SE5       29.88S
LONG PRAIRIE   RAIN      77  72  83 SE5       29.90R
LITTLE FALLS   MOCLDY    81  72  74 E5        29.89S
LITCHFIELD     CLOUDY    81  75  83 CALM      29.90R
BUFFALO        PTCLDY    82  72  69 S3        29.91R
MAPLE LAKE     MOCLDY    81  74  81 SE3       29.91R
$$
MNZ037-044-045-052-053-050200-
   East Central Minnesota

CITY           SKY/WX    TMP DP  RH WIND       PRES   REMARKS
PRINCETON      PTCLDY    82  73  74 CALM      29.90S
MORA           MOCLDY    77  70  78 SE3       29.93S
CAMBRIDGE      PTCLDY    82  70  65 SE6       29.90R
RUSH CITY      CLEAR     79  71  76 SE6       29.92S
MOOSE LAKE     PTCLDY    68  63  83 NE5       29.93S
HINCKLEY       FAIR      79  72  78 SE3       29.93S
CLOQUET        PTCLDY    64  57  77 E6        29.97R
MCGREGOR       MOCLDY    73  70  88 E9        29.93S
$$
MNZ071>073-080-081-089-090-097-098-050200-
   Southwest Minnesota

CITY           SKY/WX    TMP DP  RH WIND       PRES   REMARKS
MONTEVIDEO     MOCLDY    75  70  83 S9        29.86F
GRANITE FALLS  CLOUDY    77  69  77 SE8       29.87S
CANBY          CLEAR     78  65  63 S8        29.86R
MARSHALL       PTCLDY    79  66  65 S15       29.87R
REDWOOD FALLS  CLOUDY    76  70  82 S10       29.88R
OLIVIA         CLOUDY    72  68  88 SE5       29.88S
PIPESTONE      PTCLDY    77  72  83 SE10G18   29.89R
WINDOM         MOCLDY    75  70  83 E6        29.91S
WORTHINGTON    PTCLDY    75  70  83 SE9       29.91R
JACKSON        MOCLDY    77  73  88 SE8       29.93S
TRACY          PTCLDY    77  72  84 S9        29.89R
SLAYTON        PTCLDY    74  72  92 CALM      29.91S
$$
MNZ065>067-074>077-082>085-091>093-050200-
   South Central Minnesota

CITY           SKY/WX    TMP DP  RH WIND       PRES   REMARKS
MANKATO        CLOUDY    79  73  83 SW7       29.94R
NEW ULM        CLOUDY    75  72  88 SE7       29.90F
ST JAMES       CLOUDY    77  73  88 SE5       29.93S
FAIRMONT       CLOUDY    79  68  69 SE8       29.92S
GLENCOE        CLOUDY    82  75  81 S3        29.90S
FARIBAULT      MOCLDY    81  73  78 S5        29.94S
OWATONNA       MOCLDY    81  73  78 S6        29.94F
WASECA         MOCLDY    77  72  83 S6        29.96R
ALBERT LEA     CLOUDY    81  70  69 S9        29.95S
$$
MNZ078>079-086>088-094>096-050200-
   Southeast Minnesota

CITY           SKY/WX    TMP DP  RH WIND       PRES   REMARKS
ROCHESTER      MOCLDY    77  72  84 SE8       29.98R
RED WING       PTCLDY    82  72  69 SE8       29.92S
STANTON        MOCLDY    82  72  73 SE5       29.92S
DODGE CENTER   MOCLDY    75  73  94 CALM      29.97S
WINONA         CLEAR     79  70  73 CALM      29.96S
AUSTIN         MOCLDY    81  73  78 S5        29.96S
PRESTON        CLEAR     78  70  77 SE3       29.99S
$$
ABBREVIATIONS USED IN REMARKS
   TC - TEMPERATURES IN CELSIUS
  WCI - WIND CHILL INDEX
   HX - HEAT INDEX
  VSB - VISIBILITY
$$



USA.gov is the U.S. government's official web portal to all federal, state and local government web resources and services.